Tracking 17694 objects as of 28-May-2016
HD Live streaming from Space Station
objects crossing your sky now

TANSUO 2

Track TANSUO 2 now!
10-day predictions
TANSUO 2 is classified as:


NORAD ID: 28479
Int'l Code: 2004-046A
Perigee: 693.8 km
Apogee: 706.8 km
Inclination: 98.2 °
Period: 98.6 minutes
Semi major axis: 7071 km
RCS: 1.44 m2 (large)
Launch date: November 18, 2004
Source: People's Republic of China (PRC)
Launch site: Xichang Space Center, China (XSC)
Your satellite tracking list
Your tracking list is empty





NASA's NSSDC Master Catalog

Two Line Element Set (TLE):
1 28479U 04046A   16149.04967095  .00000134  00000-0  37395-4 0  9994
2 28479  98.2295 163.0540 0009158 246.6258 113.3989 14.60535985613316
Source of the keplerian elements: AFSPC

N2YO: 583